Wetbulb
60.31 60.31 60.62 60.88 61.31 61.50 61.98 62.44 62.39 63.56 63.46 63.43 63.69 63.67 63.66 63.36 62.00 58.54 54.87 59.74 60.25 62.67 61.50 58.82 57.28 55.25 54.95 49.55 52.26 50.63 43.24 42.82 45.17 42.31 43.41 46.78 45.70 49.19 50.63 51.77 53.86 56.06 55.07 56.98 61.08
60.06 59.80 59.93 60.32 60.51 61.33 61.20 62.47 62.06 62.45 63.21 63.29 63.27 63.22 63.05 62.22 57.98 55.11 61.19 64.27 63.60 62.37 58.24 56.45 52.90 53.90 48.24 48.33 48.84 46.99 42.06 45.29 49.97 43.97 41.98 46.55 45.89 48.45 49.04 48.76 50.86 54.48 58.09 59.49 60.35
59.18 59.24 59.67 59.65 59.86 60.54 60.74 61.40 61.82 61.80 62.26 63.01 62.91 62.95 61.97 60.88 53.45 53.43 63.45 64.92 63.99 60.97 57.40 56.53 57.09 54.81 49.52 48.29 46.87 47.68 44.83 48.90 48.02 47.38 45.81 46.57 45.72 47.60 48.34 46.24 50.62 53.12 56.91 58.16 58.65
58.87 58.93 59.26 59.47 59.49 59.86 60.15 60.79 61.48 61.37 61.87 62.05 62.42 62.37 61.17 57.22 43.46 55.25 63.76 64.91 63.88 58.94 56.50 55.69 54.03 49.34 47.81 44.30 48.05 43.90 50.38 51.46 52.31 49.84 47.36 45.11 45.52 45.08 45.98 47.01 50.22 55.69 58.75 58.85 58.54
58.45 58.44 58.69 58.93 59.34 59.45 59.38 59.93 60.96 61.15 61.36 61.50 61.63 61.40 57.97 52.71 50.06 57.62 61.20 64.06 60.13 56.82 53.91 52.40 52.04 48.74 46.28 47.79 48.28 44.49 47.89 51.92 53.41 50.05 46.73 46.52 44.08 44.04 43.59 45.65 52.66 59.04 58.87 58.49 58.99
58.02 57.96 57.69 58.32 58.81 59.34 59.19 59.65 60.03 61.22 60.83 61.35 61.45 60.55 54.87 47.17 56.85 61.69 61.74 60.60 58.18 55.59 53.98 52.69 53.25 51.92 48.14 47.76 46.95 49.18 49.46 50.29 50.50 47.38 46.48 45.30 44.93 45.93 44.66 47.77 55.83 58.07 57.27 57.74 58.01
57.81 57.79 57.59 57.54 58.27 58.52 58.76 59.16 59.22 60.65 60.84 60.86 61.47 58.09 52.91 49.37 56.54 60.73 60.31 58.19 58.18 56.21 53.06 54.35 52.68 50.51 49.26 45.82 50.01 49.40 46.30 48.57 50.04 46.68 44.08 46.92 43.30 44.79 46.07 51.75 54.98 55.39 55.35 56.39 57.45
56.58 57.32 56.99 57.28 57.60 58.26 58.23 58.67 59.47 60.15 60.47 60.47 60.72 55.98 49.53 56.36 56.19 59.11 58.76 57.59 58.20 57.71 55.87 55.46 54.07 49.42 47.63 48.53 45.87 44.87 42.45 38.32 45.34 45.25 45.68 44.92 40.38 46.96 49.26 46.35 50.99 52.73 53.77 55.57 56.84
56.35 56.39 56.53 56.72 56.92 57.59 57.83 57.68 58.63 59.83 60.05 59.50 55.16 52.46 47.41 57.04 52.93 56.01 57.39 55.17 56.44 56.80 56.57 56.03 52.90 46.82 45.59 41.49 37.43 38.46 34.48 36.46 41.33 45.16 43.93 44.24 41.71 46.96 49.00 48.72 45.87 47.96 51.51 54.90 55.87
56.02 56.01 56.12 56.46 56.44 57.48 57.35 57.19 57.62 57.67 56.02 54.94 54.53 47.62 49.98 48.72 52.58 54.49 55.20 56.61 54.02 53.44 51.85 50.19 45.73 42.51 40.94 38.76 33.63 33.09 33.33 36.58 38.01 43.20 42.09 41.86 41.78 44.51 46.78 46.91 45.97 44.31 45.81 51.62 55.10
55.76 55.99 56.03 56.33 56.29 57.43 55.83 51.89 47.39 46.00 50.26 44.66 44.97 44.53 47.84 52.12 54.28 52.10 54.08 53.31 51.41 48.74 44.82 47.86 42.87 39.86 41.02 40.73 41.05 38.79 37.67 37.45 38.93 44.24 40.23 40.66 42.56 42.98 46.20 44.14 44.03 43.07 43.17 44.98 52.67
55.09 55.92 55.90 56.00 56.68 56.93 52.91 45.42 45.11 45.60 42.79 47.18 48.26 48.17 49.88 51.72 47.14 49.81 54.09 47.89 46.35 42.49 44.82 43.64 40.77 43.23 43.88 42.91 41.89 39.81 36.75 36.11 40.71 42.87 40.73 40.05 40.25 44.35 43.42 43.94 44.81 44.51 44.10 44.06 44.83
55.24 55.50 55.41 55.94 56.13 54.14 49.21 46.18 50.57 49.86 41.09 43.25 46.55 46.53 46.83 48.79 44.44 47.01 51.09 48.55 45.26 42.95 43.15 40.45 41.47 45.56 42.67 41.48 40.50 40.26 38.01 37.33 38.30 39.96 40.08 37.67 38.14 40.91 43.49 45.20 45.85 46.63 47.82 47.51 47.22
55.00 55.00 55.25 55.25 50.98 50.20 47.63 50.04 50.85 47.06 32.97 36.73 41.22 44.15 46.76 46.83 42.06 49.18 52.04 48.54 45.56 42.45 43.59 42.41 43.79 43.33 40.61 39.77 41.12 36.29 42.22 42.38 41.02 38.20 33.10 38.88 32.31 38.93 42.94 43.97 44.92 47.37 48.00 48.65 49.05
54.65 55.08 55.18 54.06 47.69 46.79 49.39 51.18 50.36 43.21 16.91 35.62 39.36 48.33 46.89 41.67 42.31 44.89 50.35 46.74 42.05 42.64 43.78 40.46 41.53 41.45 39.73 40.02 42.52 38.16 43.22 42.18 40.98 38.55 37.79 37.51 34.93 36.35 41.16 40.47 43.69 46.93 49.12 50.19 50.87
54.31 54.55 54.18 50.09 48.70 49.45 52.18 50.34 46.67 30.01 14.96 33.01 40.02 40.04 40.23 40.97 40.74 44.91 45.33 46.90 45.93 41.37 41.73 41.54 46.72 44.44 42.10 43.04 43.30 43.39 40.57 39.58 36.89 38.20 33.46 36.50 35.86 34.25 38.84 41.43 43.49 46.28 47.64 48.99 49.33
54.06 54.04 51.49 49.17 44.34 51.57 51.41 45.60 31.37 24.16 28.02 32.68 35.32 39.36 37.87 37.76 38.44 39.84 40.67 40.90 37.57 34.68 34.70 38.60 39.71 44.02 44.88 40.77 42.16 42.55 38.35 31.45 30.63 30.46 28.10 35.59 33.75 37.38 41.40 43.31 46.08 46.84 47.10 46.33 46.93
53.83 53.21 50.41 47.72 51.02 51.66 47.66 37.14 25.00 20.76 22.49 37.27 37.40 37.82 33.71 36.71 36.65 36.81 37.56 36.72 40.75 36.24 34.15 30.84 27.99 39.05 43.87 41.86 38.27 38.91 38.36 29.35 24.44 25.32 27.39 34.30 32.11 36.56 43.37 47.74 48.69 47.90 46.41 45.44 45.40
53.21 49.43 46.71 49.25 51.71 50.80 41.35 28.86 27.54 24.83 33.37 35.02 36.15 33.27 32.30 35.39 35.42 35.07 34.84 35.34 38.35 39.50 33.71 34.07 33.68 39.51 41.81 44.05 42.67 37.39 35.85 38.73 29.26 19.14 24.22 29.49 32.97 37.42 40.78 42.53 45.53 45.50 44.46 44.65 44.05
47.67 45.24 44.29 50.71 51.68 47.17 36.34 30.37 29.24 33.77 35.49 36.00 29.98 33.54 30.11 33.26 32.99 33.13 33.82 37.34 36.50 40.07 39.47 35.06 30.74 39.06 40.15 42.79 42.77 41.19 41.94 34.40 34.34 22.58 19.92 25.94 27.37 33.30 35.25 40.08 44.26 41.85 41.88 42.31 42.54
45.69 39.96 45.85 50.99 49.28 41.23 31.24 31.17 30.93 36.86 35.76 32.05 28.41 30.26 32.42 32.72 33.96 32.45 33.62 34.41 38.70 37.97 41.13 37.01 34.65 33.13 39.92 38.62 37.44 38.15 37.11 37.87 36.77 30.21 25.54 21.82 27.87 35.84 40.17 42.28 43.62 42.16 41.00 40.27 39.18
39.93 33.07 46.79 48.71 35.26 34.69 30.34 31.02 36.61 33.81 34.37 32.68 32.52 31.76 30.28 32.93 33.87 33.26 31.85 34.32 38.78 40.30 36.98 39.80 35.27 29.23 33.71 39.01 40.58 41.03 38.04 38.55 32.84 30.17 29.25 27.77 30.11 37.10 36.02 38.00 39.32 38.96 38.92 38.11 38.80
35.99 37.82 45.71 44.78 28.03 30.30 31.53 31.50 33.16 32.35 31.01 30.63 30.46 32.40 33.66 31.12 27.87 32.07 35.64 37.43 39.43 40.94 37.72 40.52 35.20 28.85 31.67 35.09 38.17 36.62 38.95 39.80 39.32 32.58 31.17 29.15 30.84 37.06 35.13 33.54 35.57 37.65 38.83 39.51 39.60
36.81 31.72 33.21 36.97 33.73 31.34 29.33 28.43 27.98 33.29 32.32 32.26 31.23 33.20 30.59 31.19 31.69 28.41 31.50 34.95 37.98 39.51 42.92 42.42 34.55 32.59 28.85 31.91 35.89 34.92 37.88 38.81 38.13 32.21 32.45 32.34 34.58 36.10 35.31 35.21 35.81 37.73 39.31 39.93 40.23
31.93 29.78 32.35 28.01 27.03 30.48 30.96 29.74 27.33 25.23 31.95 32.33 30.46 30.32 28.98 21.69 26.87 28.55 31.20 32.60 35.25 39.41 40.53 40.90 33.81 34.09 34.65 35.56 36.93 36.77 37.31 38.57 37.00 37.18 33.02 35.76 35.33 39.20 37.79 36.28 36.93 38.30 39.36 39.94 41.02
28.56 29.23 28.25 29.37 30.85 30.35 31.16 25.51 28.07 28.26 30.01 28.61 27.79 30.55 30.16 25.88 28.21 26.17 30.56 31.65 32.19 37.71 36.42 39.88 32.86 35.68 32.46 35.39 36.25 34.17 37.69 38.51 38.70 38.75 38.78 38.31 35.17 42.74 42.28 38.95 36.52 37.65 38.04 39.42 41.60
32.85 32.59 32.32 30.22 24.38 26.14 24.40 27.36 29.04 31.02 30.99 32.63 31.18 30.24 29.00 31.18 32.35 32.15 33.61 34.74 34.36 33.97 35.08 32.91 32.18 31.73 28.66 32.96 34.03 30.49 34.55 37.03 37.61 39.83 39.52 35.36 40.09 38.39 39.79 38.95 37.88 37.65 38.97 39.36 41.74
MSLP
1013.09 1013.62 1014.04 1014.44 1015.04 1015.35 1015.55 1015.85 1016.13 1016.58 1016.92 1017.38 1017.64 1018.14 1018.53 1018.94 1019.32 1019.45 1019.23 1018.60 1018.46 1018.34 1018.49 1018.48 1018.36 1018.65 1018.84 1019.20 1019.09 1018.76 1019.17 1018.86 1018.34 1017.66 1017.13 1016.38 1016.41 1016.69 1016.81 1017.23 1018.10 1018.75 1019.25 1019.11 1019.44
1012.40 1012.93 1013.57 1014.00 1014.48 1015.03 1015.26 1015.56 1015.89 1016.25 1016.57 1017.17 1017.36 1018.02 1018.47 1018.95 1019.57 1019.43 1018.69 1018.40 1018.48 1018.47 1018.71 1018.90 1019.06 1019.01 1019.68 1019.76 1019.76 1019.43 1019.20 1018.57 1018.15 1017.77 1017.48 1016.72 1016.50 1016.69 1017.14 1017.80 1018.58 1019.15 1019.38 1019.36 1019.79
1011.64 1012.26 1013.00 1013.51 1013.93 1014.46 1014.90 1015.25 1015.59 1016.02 1016.40 1016.94 1017.19 1017.89 1018.43 1019.00 1019.65 1018.60 1018.06 1018.20 1018.48 1018.59 1018.68 1018.90 1019.16 1019.44 1020.03 1020.23 1020.21 1019.81 1019.23 1018.60 1018.20 1017.65 1017.44 1017.09 1016.77 1016.79 1017.09 1017.90 1018.27 1018.87 1019.62 1019.91 1020.22
1010.65 1011.51 1012.35 1012.97 1013.47 1013.85 1014.48 1014.91 1015.36 1015.79 1016.12 1016.64 1016.94 1017.69 1018.41 1018.88 1018.82 1017.28 1017.18 1017.83 1018.38 1018.72 1018.79 1019.11 1019.46 1020.03 1020.34 1020.57 1020.39 1020.44 1019.35 1018.49 1018.63 1017.95 1017.63 1017.42 1016.98 1017.00 1017.17 1017.30 1017.48 1018.15 1018.98 1019.78 1020.24
1009.65 1010.55 1011.45 1012.35 1012.95 1013.38 1013.89 1014.63 1015.07 1015.49 1015.87 1016.39 1016.84 1017.48 1018.42 1018.72 1017.88 1016.98 1017.09 1017.70 1018.43 1018.89 1019.03 1019.32 1019.67 1020.18 1020.42 1020.53 1020.69 1020.37 1019.71 1019.01 1018.43 1018.54 1018.27 1017.61 1017.35 1017.26 1017.26 1017.14 1017.62 1018.56 1019.33 1019.74 1020.02
1008.88 1009.61 1010.65 1011.55 1012.41 1013.03 1013.40 1014.22 1014.75 1015.18 1015.65 1016.16 1016.68 1017.40 1017.98 1017.87 1016.93 1017.07 1016.95 1017.81 1018.33 1018.86 1019.09 1019.16 1019.47 1019.67 1020.24 1020.52 1020.42 1019.97 1020.02 1019.54 1019.01 1018.70 1018.63 1018.04 1017.70 1017.54 1017.49 1017.51 1018.26 1018.87 1019.43 1019.79 1019.91
1008.09 1008.86 1009.73 1010.82 1011.87 1012.60 1013.21 1013.78 1014.36 1014.91 1015.48 1015.93 1016.52 1017.39 1017.66 1017.19 1016.74 1016.94 1017.27 1017.87 1018.14 1018.56 1018.96 1019.01 1019.18 1019.49 1019.94 1020.45 1020.11 1020.09 1020.26 1019.97 1019.01 1018.52 1018.34 1018.13 1017.99 1017.77 1017.50 1017.91 1018.73 1019.22 1019.41 1019.84 1019.89
1006.98 1008.14 1008.99 1009.95 1011.23 1012.04 1012.85 1013.51 1013.96 1014.65 1015.26 1015.84 1016.50 1017.53 1017.21 1016.80 1016.94 1017.27 1017.60 1018.11 1018.46 1018.68 1018.90 1018.92 1019.18 1019.59 1019.98 1020.07 1020.36 1020.58 1020.64 1020.36 1019.26 1018.83 1018.33 1018.73 1017.71 1017.51 1017.60 1018.14 1018.80 1019.28 1019.56 1019.60 1019.55
1005.81 1007.16 1008.36 1009.16 1010.60 1011.57 1012.44 1013.24 1013.84 1014.53 1015.26 1015.96 1017.19 1017.45 1017.09 1016.66 1017.23 1017.39 1017.34 1018.03 1018.53 1018.88 1019.05 1019.00 1019.28 1020.02 1020.37 1020.66 1020.96 1021.03 1020.77 1020.34 1019.88 1018.88 1018.55 1018.41 1017.47 1017.08 1017.22 1017.90 1018.56 1019.00 1019.12 1019.08 1019.12
1004.86 1006.27 1007.58 1008.47 1009.97 1011.16 1012.17 1013.13 1013.94 1014.86 1015.91 1016.89 1017.28 1018.15 1017.16 1016.33 1016.88 1017.18 1017.37 1017.71 1018.74 1019.12 1019.79 1019.86 1020.00 1020.56 1020.87 1020.97 1020.71 1021.03 1021.16 1020.45 1019.79 1018.96 1018.84 1018.57 1017.28 1017.19 1017.10 1017.57 1017.93 1018.10 1018.20 1018.31 1018.37
1003.90 1005.51 1006.97 1007.76 1009.32 1010.57 1011.97 1013.32 1014.79 1015.82 1015.53 1014.72 1015.03 1015.65 1015.38 1016.10 1016.61 1017.21 1017.38 1018.15 1018.85 1019.42 1019.86 1020.15 1020.30 1019.66 1019.86 1020.64 1020.75 1020.74 1020.79 1020.56 1019.58 1019.00 1019.00 1018.45 1017.55 1017.36 1016.99 1017.44 1017.46 1017.64 1017.65 1017.61 1017.39
1002.93 1004.69 1006.27 1007.14 1008.86 1009.99 1011.17 1011.51 1011.34 1011.13 1014.03 1014.77 1015.01 1015.73 1015.49 1015.57 1016.73 1017.23 1017.43 1018.49 1019.04 1019.29 1020.00 1020.36 1019.08 1019.27 1020.26 1020.70 1020.90 1021.08 1020.96 1020.57 1019.84 1019.10 1019.17 1018.73 1017.79 1017.25 1017.04 1016.81 1016.66 1016.79 1016.70 1016.74 1016.80
1002.02 1003.88 1005.51 1006.81 1008.40 1009.80 1010.31 1010.88 1011.34 1011.62 1013.95 1015.10 1015.38 1015.41 1015.64 1015.87 1016.32 1016.89 1017.52 1017.98 1018.62 1019.26 1019.23 1018.99 1018.46 1019.25 1020.19 1020.51 1021.02 1020.97 1021.03 1020.90 1020.35 1019.41 1019.13 1019.05 1018.05 1017.09 1016.44 1016.08 1015.74 1015.58 1015.47 1015.43 1015.45
1001.15 1002.96 1004.80 1006.27 1008.51 1009.31 1010.29 1010.63 1011.09 1011.74 1014.02 1015.13 1015.49 1015.14 1015.58 1015.98 1016.67 1016.52 1016.95 1017.54 1018.38 1018.43 1018.87 1019.03 1018.84 1019.07 1019.65 1019.90 1020.39 1020.58 1020.52 1020.85 1020.76 1020.25 1019.71 1019.23 1017.66 1016.27 1015.76 1015.41 1015.12 1014.53 1014.54 1014.45 1014.34
1000.32 1002.20 1004.17 1005.38 1006.38 1008.02 1008.99 1010.25 1011.28 1012.04 1013.93 1014.20 1014.94 1014.45 1015.15 1015.98 1016.20 1016.96 1016.90 1017.59 1017.96 1018.04 1018.69 1017.89 1018.10 1018.56 1018.92 1018.65 1020.02 1019.81 1019.91 1020.40 1020.70 1020.64 1020.33 1019.60 1019.11 1015.73 1015.44 1015.00 1014.10 1013.43 1013.16 1013.13 1012.99
999.54 1001.65 1003.77 1005.51 1007.20 1008.13 1009.18 1010.52 1011.99 1013.81 1013.61 1013.83 1013.66 1014.34 1015.33 1015.93 1016.26 1016.76 1017.03 1017.46 1017.90 1018.25 1018.44 1018.25 1018.26 1017.95 1017.77 1018.39 1019.00 1019.44 1020.06 1020.52 1020.82 1020.86 1020.09 1018.91 1018.90 1015.03 1014.81 1014.04 1013.20 1012.55 1012.13 1012.14 1012.21
999.11 1001.16 1003.22 1004.57 1005.73 1007.27 1008.74 1010.94 1012.67 1013.01 1013.19 1013.43 1013.08 1013.65 1014.65 1015.42 1016.28 1016.12 1016.74 1017.22 1017.48 1018.13 1018.05 1018.40 1017.96 1017.81 1017.85 1018.39 1018.78 1019.02 1019.88 1020.49 1021.03 1020.77 1018.28 1018.02 1018.38 1014.01 1013.63 1012.86 1011.94 1011.57 1011.29 1011.46 1011.70
998.96 1001.20 1003.11 1004.57 1005.51 1006.87 1008.60 1011.22 1011.85 1012.42 1012.59 1012.19 1012.49 1013.74 1014.43 1015.18 1015.85 1016.11 1016.67 1017.05 1017.19 1017.26 1017.47 1017.85 1017.75 1017.29 1017.34 1017.39 1017.45 1018.06 1018.82 1018.86 1019.22 1019.44 1018.38 1018.07 1016.31 1013.52 1012.43 1011.69 1011.18 1010.76 1011.02 1011.31 1011.59
999.03 1001.80 1003.34 1004.47 1005.17 1006.28 1008.52 1010.71 1010.81 1011.44 1011.42 1011.77 1012.80 1013.78 1014.44 1014.87 1015.08 1016.22 1016.66 1016.79 1016.40 1016.71 1016.93 1017.11 1016.80 1015.99 1016.08 1017.05 1017.19 1017.64 1017.51 1016.92 1018.44 1019.56 1018.94 1017.27 1015.06 1013.49 1012.31 1011.81 1011.05 1010.73 1010.92 1010.74 1010.83
998.94 1001.32 1003.32 1004.24 1005.17 1006.69 1008.52 1010.23 1011.44 1011.06 1011.14 1011.72 1012.55 1013.36 1013.82 1014.45 1015.25 1016.02 1016.22 1015.52 1015.64 1015.51 1016.59 1016.87 1016.92 1016.64 1016.59 1016.99 1016.60 1016.06 1016.52 1017.57 1017.96 1018.57 1018.15 1016.28 1014.80 1012.65 1012.07 1011.36 1010.57 1010.57 1010.68 1010.69 1010.81
999.33 1001.81 1003.78 1004.11 1005.71 1007.31 1007.88 1010.20 1011.47 1010.91 1010.70 1011.82 1012.90 1013.58 1014.09 1014.31 1015.19 1015.50 1015.29 1015.25 1015.13 1015.72 1016.45 1016.80 1016.72 1017.38 1017.02 1016.03 1015.47 1016.26 1016.04 1016.09 1016.43 1017.10 1016.46 1015.70 1013.22 1011.45 1010.79 1010.20 1009.79 1010.00 1010.37 1010.45 1010.61
999.48 1001.71 1003.52 1004.14 1006.34 1007.67 1008.65 1009.74 1010.61 1011.26 1011.67 1012.24 1012.78 1013.62 1014.36 1014.80 1015.07 1015.37 1015.13 1014.80 1014.16 1014.90 1015.36 1015.85 1016.25 1016.34 1015.80 1016.03 1015.90 1015.60 1015.06 1015.49 1015.49 1015.13 1015.07 1014.45 1011.82 1010.56 1010.39 1010.15 1009.96 1009.98 1010.24 1010.41 1010.56
1000.37 1002.33 1004.29 1004.66 1006.07 1007.57 1008.82 1009.52 1010.12 1010.88 1011.82 1012.71 1013.23 1013.47 1014.23 1014.83 1015.60 1015.59 1015.23 1014.87 1014.49 1014.57 1014.35 1014.93 1015.25 1015.77 1015.84 1016.49 1015.89 1015.16 1014.37 1013.68 1014.04 1014.14 1013.74 1013.56 1010.73 1010.16 1009.96 1009.90 1009.96 1010.27 1010.53 1010.64 1010.64
1000.19 1003.14 1005.01 1006.04 1006.93 1007.38 1008.58 1009.55 1010.28 1010.75 1011.75 1012.23 1013.15 1013.55 1014.47 1015.27 1015.47 1015.86 1015.84 1015.19 1014.73 1014.35 1014.33 1014.58 1014.55 1014.39 1013.81 1013.62 1013.89 1014.12 1013.76 1013.62 1013.65 1013.66 1011.89 1011.53 1010.27 1010.08 1010.13 1010.09 1010.34 1010.51 1010.72 1010.66 1010.66
1000.83 1003.67 1004.63 1006.12 1007.68 1007.64 1008.45 1009.36 1010.35 1011.23 1011.63 1012.08 1013.27 1013.49 1013.97 1015.38 1015.77 1015.82 1015.58 1015.32 1014.83 1014.49 1014.61 1015.03 1014.13 1014.29 1014.04 1014.01 1013.44 1012.94 1012.92 1012.83 1012.43 1010.97 1011.75 1009.29 1009.86 1009.52 1009.07 1009.27 1009.61 1009.83 1010.32 1010.59 1010.53
1001.48 1003.74 1005.70 1007.08 1007.44 1008.32 1008.82 1009.82 1010.12 1011.09 1011.54 1012.44 1012.97 1013.63 1013.84 1014.42 1014.14 1014.84 1014.97 1014.93 1014.58 1014.70 1014.82 1015.06 1014.51 1014.02 1013.68 1013.98 1013.53 1013.08 1012.80 1012.12 1011.64 1010.50 1010.69 1009.01 1008.56 1008.22 1008.60 1009.06 1009.63 1009.72 1010.35 1010.59 1010.47
1001.92 1002.78 1004.28 1007.13 1008.14 1008.62 1009.03 1009.83 1010.30 1010.95 1011.94 1012.03 1012.71 1013.53 1013.73 1013.07 1013.61 1013.96 1014.26 1014.49 1014.49 1014.56 1014.80 1015.21 1015.36 1014.94 1012.85 1013.16 1013.06 1012.24 1010.65 1010.61 1010.53 1009.67 1008.67 1008.14 1005.78 1008.22 1008.44 1008.61 1008.77 1009.22 1009.45 1009.84 1010.13
Wind_Speed
23 21 20 18 16 15 12 11 17 13 13 14 14 13 12 9 6 2 4 4 4 5 2 1 2 4 4 4 4 2 3 2 2 5 6 3 3 2 1 6 4 3 5 3 12
24 23 22 20 18 16 15 12 13 16 14 13 14 14 14 11 3 4 6 4 6 6 4 3 3 4 4 3 4 2 3 4 5 1 4 2 1 5 4 3 4 4 4 7 8
27 24 23 22 20 17 15 14 12 15 16 14 14 15 15 9 3 8 14 10 8 3 3 1 4 3 4 2 2 2 5 3 2 2 2 5 2 1 8 2 6 8 7 7 7
28 26 24 22 21 19 16 14 12 13 16 16 16 17 16 4 8 3 14 16 9 5 4 4 4 4 4 4 0 2 5 5 5 8 6 4 1 1 3 3 3 9 14 12 11
29 28 27 23 21 20 19 15 13 13 14 18 16 18 8 4 6 1 6 15 7 5 6 5 5 5 5 6 3 1 3 5 5 9 8 4 2 2 4 4 6 12 11 14 13
31 29 28 25 22 20 19 18 15 14 15 17 19 18 6 14 3 4 9 12 7 5 5 5 7 5 4 4 5 6 2 4 6 5 5 4 3 1 2 3 9 13 12 11 12
32 30 28 26 23 22 20 19 16 13 14 16 20 12 7 9 4 9 12 7 6 7 5 4 3 3 4 4 5 3 4 7 8 2 3 2 6 5 4 6 8 8 9 10 11
35 33 29 27 24 22 21 19 16 14 14 14 20 5 4 5 4 7 5 4 5 4 1 1 3 1 2 1 2 5 2 3 6 7 6 6 14 9 8 8 9 9 8 11 14
34 32 30 27 25 22 20 17 15 14 13 14 8 5 5 6 6 6 5 8 7 2 3 2 6 3 2 3 2 3 4 5 6 9 5 8 8 10 8 9 9 10 10 12 11
34 33 31 28 26 23 21 17 15 11 8 7 3 4 5 8 7 6 4 8 6 6 3 2 3 4 1 5 9 5 4 4 8 5 8 9 16 5 5 9 11 11 11 12 13
34 33 32 29 26 25 20 11 10 5 11 12 11 1 7 7 6 5 6 6 4 4 8 4 5 17 17 6 5 6 6 9 4 10 5 15 20 10 12 5 8 9 8 10 15
35 35 33 30 27 26 15 9 16 6 17 1 11 5 4 5 6 9 10 8 7 11 7 4 17 15 6 3 4 4 2 4 5 4 8 8 17 15 7 8 9 11 11 10 7
37 37 35 33 29 20 17 6 7 11 7 5 3 8 5 5 4 13 17 7 9 13 17 15 4 10 10 5 10 9 8 3 5 2 3 2 9 10 8 10 8 10 14 12 14
39 37 36 35 22 16 17 9 9 4 5 7 8 6 3 6 3 5 13 9 4 17 15 14 6 16 8 15 13 15 9 6 6 2 5 5 9 8 10 15 10 15 13 16 15
41 39 38 34 17 20 24 9 7 6 6 9 12 6 9 7 9 6 4 4 9 6 8 9 12 15 18 15 12 8 9 13 7 4 3 4 5 6 5 10 14 17 18 18 17
41 40 39 18 11 17 18 10 5 5 9 9 12 14 15 6 2 6 5 3 3 5 6 8 3 17 12 13 18 9 5 4 3 3 13 11 9 8 12 10 9 12 14 14 13
41 41 31 14 16 19 18 12 7 9 1 10 13 19 20 10 6 7 12 14 10 12 17 8 16 3 6 12 8 10 9 4 7 8 19 10 10 21 8 8 14 15 14 10 10
41 38 20 5 19 22 13 13 9 3 7 3 14 19 16 18 11 5 12 15 18 4 4 13 8 17 8 11 6 19 17 6 7 7 9 3 12 9 12 21 21 15 9 6 8
41 14 13 15 19 18 17 16 5 8 8 12 16 19 12 10 10 8 11 19 18 16 12 8 11 1 10 8 9 9 19 11 3 3 3 7 9 7 8 11 15 16 8 11 9
14 13 10 20 18 16 15 8 3 6 8 13 7 5 13 21 11 18 16 15 12 23 7 5 2 3 7 9 11 15 7 12 5 5 7 6 6 11 3 14 14 7 9 9 8
12 10 8 18 12 13 17 7 4 3 4 5 6 6 6 12 10 20 10 5 23 9 20 3 5 1 3 12 19 7 13 9 6 4 5 4 9 9 19 19 20 9 7 7 8
5 7 10 17 10 6 9 12 7 6 4 4 6 7 7 7 11 15 12 10 11 17 19 15 5 10 15 6 2 14 12 19 11 19 3 1 12 3 8 10 7 7 6 5 6
6 8 3 15 6 10 7 6 5 5 5 4 5 4 3 8 6 7 8 2 8 14 12 14 8 9 3 3 4 8 15 19 18 3 19 13 11 4 5 0 3 8 7 6 4
7 9 4 4 0 17 17 8 6 4 5 5 7 6 6 3 4 6 5 3 1 12 15 8 6 11 13 5 6 13 19 18 23 13 22 20 18 8 7 6 5 6 6 6 5
4 3 2 10 5 12 11 12 8 5 3 4 4 4 8 5 3 5 4 1 2 5 3 6 13 14 14 8 3 10 19 25 25 34 18 25 21 16 13 14 12 11 8 7 7
7 7 3 6 12 16 8 8 15 6 8 5 7 6 5 8 10 8 8 6 6 5 9 6 7 8 16 13 12 13 16 16 26 29 25 27 18 20 12 6 8 9 9 9 8
1 4 8 7 4 8 5 9 14 9 3 9 11 7 8 14 5 3 3 2 2 6 5 4 2 7 20 11 14 16 29 25 24 27 30 28 40 6 10 8 9 12 14 13 9
Wind_Direction
209 206 200 196 199 194 199 219 204 192 190 184 184 171 169 147 113 48 220 229 186 177 155 144 57 33 29 21 334 163 89 172 21 11 304 325 110 12 29 99 62 34 151 217 160
205 203 201 195 193 195 195 198 212 195 191 186 181 162 159 141 94 232 250 201 173 180 122 150 132 87 49 17 335 84 132 215 170 276 292 306 86 150 106 101 35 36 8 95 118
205 201 202 197 191 192 192 194 204 204 191 179 174 158 156 158 91 236 206 204 184 154 90 96 105 77 97 29 305 282 185 59 299 282 305 297 82 269 126 235 198 181 174 141 136
198 199 199 197 192 188 190 193 195 199 192 186 172 157 159 159 199 194 194 188 172 156 112 116 93 92 126 160 281 294 252 150 291 331 339 296 326 71 183 215 206 172 163 156 163
197 194 194 194 192 188 185 190 196 202 193 188 178 150 136 186 243 255 185 168 142 134 168 160 136 140 177 164 127 212 250 221 273 293 256 303 256 236 247 244 96 132 157 171 174
200 194 192 187 188 188 183 188 194 195 200 189 172 155 159 205 199 126 124 146 149 145 179 160 177 181 128 189 172 192 248 240 231 244 261 211 248 331 302 122 126 152 173 184 185
198 191 187 186 184 183 187 186 186 193 200 192 170 166 202 191 179 144 138 169 157 165 170 194 116 155 129 146 244 170 157 267 262 215 254 327 293 232 200 125 152 177 175 185 200
196 192 185 177 180 179 180 179 180 187 192 192 175 154 212 159 88 134 124 107 136 177 272 102 150 91 157 267 87 150 170 202 245 185 232 153 260 232 220 150 191 195 197 195 208
190 187 184 173 173 173 172 175 176 180 188 180 143 187 211 130 155 183 147 146 168 146 238 14 122 164 85 150 80 224 198 182 281 204 165 180 246 226 219 196 210 208 200 208 211
190 184 182 168 168 163 161 161 168 162 126 92 87 133 203 202 151 149 176 132 154 131 56 182 104 135 99 162 203 195 189 193 202 235 216 219 253 252 256 193 216 210 210 209 208
185 180 179 167 166 159 147 132 130 151 184 184 184 154 140 142 103 191 155 107 93 126 181 199 178 206 199 192 204 168 181 213 236 238 191 224 246 234 240 225 235 234 220 217 216
180 177 175 164 165 162 154 181 176 150 168 262 167 205 118 165 131 190 135 146 168 194 137 172 217 203 181 187 223 240 229 245 284 274 177 260 254 247 232 233 212 218 232 223 228
175 174 169 159 168 160 171 168 155 114 139 199 149 178 145 129 160 184 167 153 178 192 191 205 225 162 176 177 215 236 220 228 236 282 206 326 268 253 241 241 238 228 226 227 211
170 168 164 159 155 162 172 175 162 105 98 181 183 228 135 136 207 165 185 152 197 207 190 230 186 178 175 213 196 226 167 214 262 256 233 161 275 246 231 237 220 235 225 229 228
165 162 163 157 150 175 164 157 121 55 139 184 170 168 156 170 143 207 172 87 170 167 178 189 184 187 202 209 190 219 174 203 217 225 316 220 266 261 209 233 238 237 236 236 237
162 160 159 151 142 156 156 136 70 104 230 173 150 166 158 183 196 118 143 78 141 179 203 232 315 193 204 196 195 152 87 56 77 151 250 220 220 219 224 217 238 238 237 233 235
158 161 157 156 158 150 141 139 162 192 300 168 171 166 171 166 169 158 167 184 188 188 213 192 227 273 186 198 186 180 155 205 212 209 241 181 211 249 242 239 226 231 235 231 232
157 154 152 140 143 142 148 154 196 189 196 226 148 158 175 148 197 138 164 196 213 177 165 211 224 197 164 220 199 200 193 177 201 197 248 101 232 241 221 232 243 249 240 233 241
146 145 144 151 147 147 146 183 188 193 161 148 130 158 173 181 158 162 183 206 210 199 199 199 226 256 196 173 174 183 213 203 81 9 65 209 275 291 256 262 258 249 224 241 233
138 139 139 147 148 151 156 143 211 171 123 139 126 162 175 175 162 188 185 200 212 208 200 209 298 237 180 168 232 216 161 198 212 190 232 246 256 234 293 248 252 254 236 249 235
122 130 145 141 142 160 184 144 175 79 98 110 139 111 166 175 178 183 197 239 199 171 198 186 198 289 122 204 192 181 203 213 186 173 219 258 252 215 216 218 236 226 226 224 197
91 110 151 136 149 171 173 143 133 146 86 95 92 95 137 167 189 194 201 197 191 180 194 197 230 226 218 174 209 243 217 201 205 215 224 185 250 209 247 251 220 200 189 203 193
92 101 59 143 144 162 134 142 122 126 128 134 116 136 168 148 147 177 193 319 175 180 185 178 220 231 206 265 205 227 223 207 224 118 222 226 247 329 17 104 175 176 188 200 196
108 128 50 87 67 156 157 166 107 90 104 104 115 88 96 133 45 155 168 268 249 200 210 185 197 226 228 225 145 209 200 222 211 225 234 228 247 235 246 226 214 216 221 203 216
47 84 55 159 175 154 143 154 125 125 89 111 46 146 140 112 116 182 183 259 271 203 152 222 231 214 237 260 314 230 219 215 208 224 216 237 234 223 210 202 204 205 202 209 222
114 130 44 81 122 134 144 181 164 145 135 181 133 161 154 162 182 174 157 189 192 191 175 187 256 219 238 237 227 237 240 235 222 229 232 247 251 219 245 166 192 207 203 217 217
121 73 101 125 91 128 182 151 184 123 43 149 138 146 198 216 187 199 214 215 191 173 161 129 312 253 256 223 234 236 228 219 231 235 218 229 234 139 222 222 201 204 204 209 205